Regional Weather Roundup
Issued by NWS

Home | Current Version | Previous Version | Text Only | Print | Product List | Glossary Off
Versions: 1 2 3 4 5 6 7 8 9 10 11 12 13 14 15 16 17 18 19 20 21 22 23 24 25 26 27 28 29 30 31 32 33 34 35 36 37 38 39 40 41 42 43 44 45 46 47 48 49 50

000
ASUS43 KLMK 270110
RWRKY
KENTUCKY REGIONAL WEATHER ROUNDUP
NATIONAL WEATHER SERVICE LOUISVILLE KY
900 PM EDT SUN APR 26 2015

NOTE "FAIR" INDICATES FEW OR NO CLOUDS BELOW 12,000 FEET
WITH NO SIGNIFICANT WEATHER AND/OR OBSTRUCTIONS TO VISIBILITY.

KYZ001>023-026-027-061>063-070>075-270200-
WESTERN AND SOUTH CENTRAL KENTUCKY

CITY           SKY/WX    TMP DP  RH WIND       PRES   REMARKS
PADUCAH        CLEAR     56  37  49 N8        29.89R
HENDERSON      CLEAR     57  36  44 N6        29.89R
OWENSBORO      CLEAR     58  40  51 N5        29.89R
HOPKINSVILLE   CLEAR     55  43  63 VRB5      29.87R
BOWLING GREEN  CLEAR     58  38  47 CALM      29.87R
GLASGOW        CLEAR     52  40  63 CALM      29.87R
$$

KYZ024-025-028>034-038-045-046-053-270200-
NORTH CENTRAL KENTUCKY

CITY           SKY/WX    TMP DP  RH WIND       PRES   REMARKS
LOUISVILLE/SDF PTCLDY    57  35  43 N18       29.88R
LOUISVILLE/LOU CLEAR     56  36  47 N8        29.89R
FORT KNOX      CLEAR     53  37  54 NW8       29.87R
$$

KYZ035>037-039>044-047>052-055>060-089>105-270200-
NORTHEAST KENTUCKY

CITY           SKY/WX    TMP DP  RH WIND       PRES   REMARKS
LEXINGTON      CLEAR     52  35  52 N7        29.86R
COVINGTON      PTCLDY    51  35  54 N7        29.89R
FRANKFORT      CLEAR     55  33  43 N7        29.86R
$$

KYZ054-064>069-076>088-106>120-270200-
SOUTHEAST KENTUCKY

CITY           SKY/WX    TMP DP  RH WIND       PRES   REMARKS
JACKSON        CLEAR     54  34  46 N6        29.82R
LONDON         CLEAR     56  34  43 NW6       29.83R
SOMERSET       CLEAR     54  37  54 CALM      29.86R
MIDDLESBORO    PTCLDY    52  49  90 CALM      29.83R
MONTICELLO     CLEAR     49  45  86 CALM      29.88R
$$




USA.gov is the U.S. government's official web portal to all federal, state and local government web resources and services.